{"data":{"norad_id":65402,"epoch":"2026-09-20T21:44:48.598656Z","epoch_age_seconds":79685,"freshness":"FRESH","line1":"1 65402U 25191Z   26263.90611804  .00014414  00000+0  44786-3 0  9998","line2":"2 65402  97.2837 129.9712 0001403  77.9670 282.1730 15.33451859 59708","mean_motion":15.33451859,"eccentricity":0.0001403,"inclination_deg":97.2837,"raan_deg":129.9712,"arg_perigee_deg":77.967,"mean_anomaly_deg":282.173,"bstar":0.00044786,"rev_number":5970,"period_min":93.905784622352,"perigee_km":464.56260153061,"apogee_km":466.48293246123,"semimajor_km":6843.6597669959,"source":"CELESTRAK","updated_at":"2026-09-21T09:00:35.602040Z"}}